sat.trackr.live / text

‹ back to catalog

ONEWEB-0656

NORAD 55817 · 2023-029X

PAYLOAD ACTIVE UNKNOWN

§ Identity

Operator
Country
UK
Launch date
2023-03-09
Launch site
AFETR
Launch vehicle
Mass (kg)
RCS (m²)

Purposes: comms

External: N2YO · Heavens-Above · Gunter

§ Orbital elements

Epoch: 2026-05-24T19:05:37.510656Z

Period
109.03 min
Inclination
87.9178°
Eccentricity
0.0002326
Mean motion
13.20771317 rev/d
Perigee alt
1,180.0 km
Apogee alt
1,183.5 km
Semi-major
7,559.9 km
B*
2.3372e-5
RAAN
279.0929°
Arg perigee
102.0931°
Mean anomaly
258.0463°
Rev number
15,806

§ Raw data

ONEWEB-06561 55817U 23029X   26144.79557304  .00000022  00000+0  23372-4 0  99932 55817  87.9178 279.0929 0002326 102.0931 258.0463 13.20771317158065

JSON: /api/v1/satellites/55817 · /tle

For live sub-satellite position, see the globe view (requires WebGL).

§ Visibility from observer

Set your observer location to see the next 7 days of passes ≥ 10°. The values pass through the URL so the page stays shareable.

No JS? Fill the form by hand. The geolocation button needs JavaScript.